Lapse_Rate
-1.4 -0.8 0.0 -0.4 0.6 0.6 1.8 2.4 2.8 3.6 4.8 5.0 5.3 5.5 5.2 5.0 5.5 6.1 5.0 6.2 8.8 9.3 9.4 9.4 9.4 9.3 9.3
0.0 -0.5 0.1 0.0 1.6 2.2 2.8 3.5 3.6 4.0 4.7 5.3 6.6 6.9 6.7 6.7 6.8 5.8 5.9 8.3 9.1 9.2 9.3 9.3 9.3 9.2 9.0
1.0 0.8 1.2 1.5 1.7 2.0 2.9 3.4 3.8 4.3 5.2 7.8 7.1 7.2 7.0 7.9 7.9 7.7 8.1 8.2 8.5 9.1 9.2 9.2 9.3 9.3 9.4
2.0 2.2 2.1 1.9 2.2 3.1 3.3 3.9 3.6 5.5 7.4 7.2 6.9 7.6 6.9 7.9 8.0 8.0 8.2 8.6 9.1 9.2 9.3 9.3 9.2 9.1 9.2
2.6 3.1 3.9 4.1 4.2 4.4 4.7 5.1 3.7 4.3 4.5 2.8 4.9 4.7 5.0 5.8 6.4 6.7 7.1 8.4 9.3 9.4 9.3 9.4 9.2 9.0 8.9
2.6 3.4 4.5 5.3 5.1 4.7 4.2 3.1 3.0 3.4 3.5 2.7 4.5 3.3 3.5 5.0 5.7 6.8 8.6 9.4 9.4 9.4 9.4 9.3 9.2 9.0 9.1
3.4 3.8 4.9 5.5 4.2 2.6 3.4 2.5 3.1 3.3 4.7 3.3 3.5 3.4 4.3 5.2 6.1 6.8 7.2 7.7 8.0 8.3 8.8 9.0 9.3 9.3 9.1
4.2 4.3 4.6 4.8 4.9 3.9 4.3 3.5 3.5 3.6 5.5 3.6 3.2 3.7 3.8 4.0 5.3 5.9 6.2 6.9 7.8 8.1 8.4 8.9 9.3 9.2 8.9
7.4 7.0 7.0 6.7 6.4 3.9 1.7 1.9 2.5 3.1 3.9 4.1 3.4 3.5 2.4 2.3 2.8 4.9 6.4 6.6 6.4 6.4 7.1 7.9 9.2 9.2 8.8
4.7 5.1 5.9 5.4 6.9 5.2 1.8 0.2 1.1 2.4 4.6 2.8 2.9 3.7 3.1 0.9 1.3 2.8 2.7 4.1 5.3 5.8 6.2 6.8 8.5 8.8 8.3
3.7 3.5 3.6 3.8 4.1 5.1 5.1 0.7 -0.6 3.0 4.4 6.6 0.0 3.6 5.0 4.2 1.9 1.7 2.5 2.2 2.8 3.4 4.1 5.1 5.9 7.6 7.5
3.8 3.9 3.0 2.1 2.4 4.0 5.2 4.8 4.5 3.8 3.4 4.6 4.1 3.4 4.3 4.3 4.2 2.4 2.2 2.6 2.6 2.3 3.1 4.2 5.0 6.0 7.0
3.7 1.7 1.5 1.0 1.9 0.9 4.2 4.2 4.1 3.7 3.9 3.2 3.2 3.7 4.4 5.3 6.0 3.4 5.8 3.8 3.4 3.3 2.3 3.9 3.5 3.8 3.7
2.5 3.3 3.0 0.3 1.0 1.2 1.1 4.6 4.1 3.1 4.0 4.0 2.3 2.6 4.0 5.5 6.3 6.3 5.2 6.8 4.6 4.1 4.9 4.7 4.3 4.5 4.1
1.9 3.1 4.0 3.9 3.7 4.0 3.8 3.7 3.6 2.9 2.4 3.2 4.3 4.2 5.3 6.7 6.7 5.2 5.1 5.1 4.9 5.0 5.5 5.7 4.8 4.3 4.7
3.5 3.3 3.2 3.4 3.7 3.7 3.8 3.7 3.5 3.3 3.3 3.7 4.4 4.4 5.5 5.7 6.4 5.3 6.0 6.1 5.8 5.9 6.0 6.4 5.8 5.5 5.7
3.5 3.6 3.8 3.8 4.4 3.8 3.6 3.8 3.6 3.8 3.8 4.3 4.4 4.9 6.3 6.4 5.8 8.2 6.8 6.8 6.5 6.4 5.5 5.2 5.3 5.1 5.4
Wind_Speed
2 3 4 4 4 6 9 13 15 16 17 18 17 18 18 20 21 21 22 22 22 22 23 22 22 23 23
1 3 4 2 4 5 10 12 9 14 16 15 16 18 20 20 20 21 21 21 21 21 21 21 22 24 24
2 1 1 2 3 6 6 10 12 15 14 13 16 19 21 20 19 20 20 21 22 23 23 23 23 24 26
2 2 2 3 4 3 3 3 4 6 9 12 19 17 19 18 18 19 20 20 20 21 21 22 23 24 26
2 2 2 2 3 2 3 1 2 2 3 4 6 10 16 17 17 20 20 20 20 20 21 23 24 26 27
1 2 2 2 1 1 1 1 2 2 2 7 6 7 12 16 18 20 21 20 20 22 23 24 26 27 27
1 1 1 1 3 1 0 2 3 4 3 9 3 7 11 14 19 22 21 21 22 23 24 24 25 26 27
2 1 1 2 1 3 3 3 3 3 3 6 1 7 7 14 19 21 20 17 17 20 22 23 23 24 25
4 8 10 10 8 1 2 1 3 2 3 3 3 3 4 8 12 12 14 17 24 24 23 24 25 26 23
5 5 8 8 10 4 3 2 2 3 2 1 3 3 4 3 2 12 14 15 22 23 25 25 26 17 10
4 4 4 4 3 4 3 3 3 4 6 4 2 4 3 5 5 4 10 9 12 17 23 24 23 20 8
3 3 3 2 2 2 7 9 10 8 11 7 4 5 7 9 9 7 7 11 11 8 12 20 22 22 23
3 2 2 2 3 3 11 15 12 13 15 14 8 9 8 9 11 12 12 10 9 8 5 8 9 8 10
2 3 3 2 2 2 2 5 6 6 11 14 14 8 9 10 10 13 11 9 11 10 9 9 11 14 10
2 4 5 6 6 4 4 5 7 7 8 6 12 14 10 13 12 12 12 11 10 11 11 11 10 9 9
3 5 5 5 6 6 5 5 7 8 8 7 8 8 8 12 19 13 12 11 11 11 9 10 11 10 9
4 5 5 6 9 7 6 6 7 8 8 7 7 7 11 12 8 18 11 9 10 12 10 10 11 13 10
Wind_Direction
113 168 203 165 187 247 266 260 259 267 274 281 286 287 287 289 289 289 287 285 284 283 281 281 280 280 281
83 151 200 147 242 251 252 259 273 273 274 282 283 285 287 292 293 288 285 284 283 282 280 281 284 284 282
132 108 104 154 234 249 250 250 259 265 277 295 294 293 296 292 290 289 288 285 286 285 284 284 282 281 280
121 157 179 188 207 219 255 251 248 266 298 301 294 299 299 295 295 296 294 291 286 283 281 279 278 277 275
140 173 180 202 199 226 219 280 307 243 273 278 294 300 297 292 296 296 293 288 286 283 279 277 275 275 275
170 161 231 193 248 95 175 55 314 274 351 303 300 285 276 279 285 291 292 292 290 287 282 278 278 277 274
207 221 332 186 173 188 87 204 243 273 296 290 241 272 270 278 292 293 293 297 296 291 287 284 282 279 277
152 259 252 296 167 186 224 261 285 282 272 281 282 291 286 276 286 293 299 296 296 301 298 291 285 281 279
287 292 289 289 288 13 313 14 301 276 259 245 280 287 280 282 276 284 302 307 304 301 298 295 290 288 285
328 321 306 293 284 251 166 198 225 318 256 18 338 337 316 279 314 312 289 292 301 302 299 297 295 293 285
306 309 307 297 287 293 235 170 196 235 270 305 289 313 260 300 301 290 291 295 297 299 297 297 295 288 277
314 306 297 307 306 340 315 296 277 266 282 275 273 273 284 289 290 299 296 296 285 286 290 293 292 290 287
306 288 252 245 273 280 270 268 258 255 265 238 237 261 259 266 275 285 292 301 288 279 275 278 277 277 279
259 274 285 321 295 261 273 293 285 275 272 274 241 238 265 263 266 277 282 283 290 283 274 271 269 263 258
295 313 310 309 307 312 294 291 280 287 287 276 270 250 257 265 274 273 280 279 275 277 282 283 280 270 261
328 305 291 290 293 287 272 277 281 282 285 289 292 288 280 265 247 268 271 272 277 275 266 274 279 276 267
279 273 279 285 296 282 277 277 280 281 280 284 284 279 286 285 283 265 274 279 287 285 276 271 274 276 276